User: anonymous   Login
Location: Stonelick Lake State Park
(39.2170°N, 84.0850°W)
Time: 05:18:47
(UTC-04:00)
Language:

Abrixas rocket - Orbit

View from above orbital plane
View from above orbital plane
View from above satellite
View from above satellite

Ground track
Ground track

The orbit data is extracted from the following two-line orbital elements,

1 25723U 99022C   17231.15716551  .00008862  00000-0  13689-3 0  9990
2 25723  48.4149 191.4870 0010421 336.7970  23.2504 15.54769204 16291
Epoch (UTC): 19 August 2017 03:46:19
Eccentricity: 0.0010421
inclination: 48.4149°
perigee height: 396 km
apogee height: 410 km
right ascension of ascending node: 191.4870°
argument of perigee: 336.7970°
revolutions per day: 15.54769204
mean anomaly at epoch: 23.2504°
orbit number at epoch: 1629

The dashed part of the orbit path shows where the satellite is in the earth's shadow,  

DLR